Regional Weather Roundup
Issued by NWS Sterling, VA

Home | Current Version | Previous Version | Graphics & Text | Print | Product List | Glossary On
Versions: 1 2 3 4 5 6 7 8 9 10 11 12 13 14 15 16 17 18 19 20 21 22 23 24 25 26 27 28 29 30 31 32 33 34 35 36 37 38 39 40 41 42 43 44 45 46 47 48 49 50
369
ASUS41 KLWX 241811
RWRLWX

REGIONAL WEATHER ROUNDUP
NATIONAL WEATHER SERVICE BALTIMORE MD/WASHINGTON DC
200 PM EDT FRI MAR 24 2017

Note: "FAIR" indicates few or no clouds below 12,000 feet
with no significant weather and/or obstructions to visibility.
 TC=TEMPERATURE CELSIUS

 * =Non NWS site. Station does not report precipitation (e.g. rain,
    snow, etc.), thunder, or fog.

DCZ001-MDZ009-015-VAZ040>042-051-053>054-241900-
WASHINGTON METRO

CITY           SKY/WX    TMP DP  RH WIND       PRES   REMARKS
WASHINGTON NAT PTSUNNY   53  36  52 SW17G23   30.32F
DULLES         PTSUNNY   51  35  54 SW12G21   30.30F
ANDREWS AFB    MOSUNNY   54  33  45 S20       30.29F
FT BELVOIR     SUNNY     54  32  44 S14G20    30.31F
QUANTICO       PTSUNNY   54  32  43 SW14G25   30.34F
COLLEGE PARK*  SUNNY     52  34  50 SW9       30.31F
LEESBURG*      MOSUNNY   54  41  62 S10       30.29F
MANASSAS*      CLOUDY    53  35  50 SW15G23   30.31F

$$

MDZ006>007-011-014-241900-
BALTIMORE METRO

CITY           SKY/WX    TMP DP  RH WIND       PRES   REMARKS
BWI AIRPORT    CLOUDY    52  35  52 SW12G18   30.30F
MD SCIENCE CTR   N/A     54  34  46 MISG      30.34F
MARTIN STATE   MOSUNNY   54  37  54 S16       30.33F
ANNAPOLIS      MOSUNNY   53  33  46 S13G22    30.31F
FORT MEADE*    CLOUDY    52  32  46 SW15G25   30.32F

$$

MDZ012-015-019>023-241900-
MARYLAND EASTERN SHORE

CITY           SKY/WX    TMP DP  RH WIND       PRES   REMARKS
OCEAN CITY     PTSUNNY   51  35  54 SW15      30.39F
SALISBURY      MOSUNNY   61  28  28 SW14      30.36F
BAY BRIDGE AP* CLOUDY    52  30  43 S17       30.32F
CAMBRIDGE*     SUNNY     54  28  37 SW14G21   30.35F
EASTON*        CLOUDY    55  28  35 SW15G25   30.38F

$$

MDZ017>025-241900-
SOUTHERN MARYLAND

CITY           SKY/WX    TMP DP  RH WIND       PRES   REMARKS
PATUXENT RIVER CLOUDY    53  33  46 S9        30.35F
ST INIGOES     CLOUDY    53  30  41 S8        30.35F
LEONARDTOWN*   CLOUDY    54  28  37 SW12G17   30.35F

$$

MDZ003>005-241900-
NORTH CENTRAL MARYLAND

CITY           SKY/WX    TMP DP  RH WIND       PRES   REMARKS
FREDERICK*     SUNNY     52  21  30 SW12      30.31F
HAGERSTOWN APT MOSUNNY   52  41  66 S10       30.24F
WESTMINSTER*   MOSUNNY   54  41  62 S10G17    30.26F

$$

MDZ501>502-241900-
WESTERN MARYLAND

CITY           SKY/WX    TMP DP  RH WIND       PRES   REMARKS
OAKLAND*       MOSUNNY   59  45  58 SW15      30.23F
CUMBERLAND*    CLOUDY    61  43  51 CALM      30.23F

$$

VAZ025>031-241900-
SHENANDOAH VALLEY

CITY           SKY/WX    TMP DP  RH WIND       PRES   REMARKS
WINCHESTER*    MOSUNNY   55  37  50 S10       30.24F
FRONT ROYAL*     N/A    N/A N/A N/A MISG        N/A
LURAY*         MOSUNNY   59  37  44 SW13      30.27F
NEW MARKET*    MOSUNNY   61  35  37 S9        30.27F
STAUNTON*      MOSUNNY   62  35  35 SW15      30.30F
WAYNESBORO*    MOSUNNY   63  37  38 SW13      30.30F

$$

WVZ021-048>050-054>055-241900-
EASTERN WEST VIRGINIA PANHANDLE

CITY           SKY/WX    TMP DP  RH WIND       PRES   REMARKS
MARTINSBURG    MOSUNNY   57  41  55 S9        30.23F
PETERSBURG*    MOSUNNY   73  48  41 S3        30.19F

$$

VAZ036>039-050-241900-
CENTRAL FOOTHILLS

CITY           SKY/WX    TMP DP  RH WIND       PRES   REMARKS
CHARLOTTESVILL MOSUNNY   58  33  39 S10       30.33F
CULPEPER*      CLOUDY    53  36  50 S16G22    30.33F
ORANGE*        PTSUNNY   52  34  50 S16       30.35F
GORDONSVILLE*  CLOUDY    55  35  47 S15G21    30.34F
WARRENTON*     CLOUDY    55  32  41 SW13G23   30.31F

$$

VAZ055>057-241900-
NORTH AND CENTRAL PIEDMONT

CITY           SKY/WX    TMP DP  RH WIND       PRES   REMARKS
FREDERICKSBRG* SUNNY     54  33  44 SW13G28   30.34F
STAFFORD*      MOSUNNY   53  32  45 SW14G21   30.37F

$$

NCZ024-NYZ072-PAZ021-071-VAZ022-071-241900-
OTHER REGIONAL OBSERVATIONS

CITY           SKY/WX    TMP DP  RH WIND       PRES   REMARKS
NEW YORK CITY  CLOUDY    46  28  49 VRB7G21   30.28F
PHILADELPHIA   CLOUDY    55  29  36 SW22G30   30.29F
PITTSBURGH     CLOUDY    70  48  45 SW13G25   30.11F
ROANOKE        MOSUNNY   62  33  33 SE7       30.37F
RICHMOND       PTSUNNY   64  32  30 SW21G30   30.37F
RALEIGH        PTSUNNY   67  45  45 SW20      30.44F

$$

ANZ530>537-241900-
MARINE OBSERVATIONS

STATION/POSITION TIME  TEMP    WIND        PRES
                       AIR SEA DIR/SP/G
                 (UTC) (F)     (DEG/KT/KT) (MB)
THOMAS PT LIGHT  1800   44 44  170/ 19/ 20   N/A
BALT KEY BRIDGE  1742   49     210/ 10/ 16 1026.4F
COVE POINT       1742   46     180/ 11/ 12 1028.6F
LEWISETTA        1742   54 46  230/ 11/ 14 1027.5F
SOLOMONS ISLAND  1742   50 45  200/  5/  8   N/A
PINEY POINT      1748          240/  3/  4   N/A

$$





USA.gov is the U.S. government's official web portal to all federal, state and local government web resources and services.